Other Public Products
Issued by NWS Grand Forks, ND

Home | Current Version | Previous Version | Graphics & Text | Print | Product List | Glossary On
Versions: 1 2 3 4 5 6 7 8 9 10 11 12 13 14 15 16 17 18 19 20 21 22 23 24 25 26 27 28 29 30 31 32 33 34 35 36 37 38 39 40 41 42 43 44 45 46 47 48 49 50
000
FPUS83 KFGF 221510
OPUFGF
PRAIRIE TO PINES WEATHER ROUNDUP
NATIONAL WEATHER SERVICE EASTERN NORTH DAKOTA/GRAND FORKS ND
1000 AM CDT FRI MAY 22 2015

 **SATELLITE DATA USED TO AUGMENT SKY COVER AT AUTOMATED STATIONS**
 *****  WEATHER ACROSS EASTERN NORTH DAKOTA  *****

CITY           SKY/WX    TMP DP  RH WIND       PRES   REMARKS
GRAND FORKS    SUNNY     65  36  34 S9        30.17F
GRAND FORKS AF SUNNY     66  37  34 SW9       30.18S
GRAND CITY NWS   N/A     63 N/A N/A S9          N/A
BUXTON         NOT AVBL
DEVILS LAKE    SUNNY     63  39  42 SW10      30.16F
FARGO          SUNNY     65  40  39 CALM      30.19S
WAHPETON ARPT  SUNNY     61  37  41 CALM      30.20S
$$

 *****  WEATHER ACROSS CENTRAL AND WESTERN NORTH DAKOTA  *****

CITY           SKY/WX    TMP DP  RH WIND       PRES   REMARKS
JAMESTOWN      SUNNY     63  41  44 S10       30.18R
BISMARCK       SUNNY     62  45  53 CALM      30.16S
MINOT          SUNNY     69  37  30 SE8       30.13S
MINOT AFB      SUNNY     70  40  34 SE7       30.12F
GARRISON         N/A     60  39  45 S5        30.15S
WILLISTON      SUNNY     63  41  44 CALM      30.13F
DICKINSON      SUNNY     63  33  32 SE14      30.12S
HETTINGER      PTSUNNY   60  39  45 SE12      30.14S
$$

 *****  OTHER OBSERVATIONS NORTHEAST NORTH DAKOTA  *****

CITY           SKY/WX    TMP DP  RH WIND       PRES   REMARKS
WALHALLA       FAIR      70  37  30 W7        30.15R
LANGDON        FAIR      66  37  34 W13       30.17S
CAVALIER       FAIR      66  41  39 SW9       30.15S
GRAFTON        FAIR      63  43  48 S9        30.17F
CANDO          FAIR      66  37  34 SW6       30.17S
FORT TOTTEN      N/A     66  40  38 S6        29.95S
ROLLA          FAIR      66  34  30 SW13      30.16S
RUGBY          NOT AVBL
 ***** THE ABOVE OBSERVATIONS ARE NON NWS ARE NOT QUALITY
        CONTROLLED AND MAY MIS-REPORT RAIN FOR SNOW...
$$

 *****  OTHER OBSERVATIONS SOUTHEAST NORTH DAKOTA *****

CITY           SKY/WX    TMP DP  RH WIND       PRES   REMARKS
COOPERSTOWN    NOT AVBL
VALLEY CITY    FAIR      63  41  45 S8        30.19S
OAKES            N/A     64  43  45 E8        30.19S
GWINNER        NOT AVBL
SHEYENNE NWR     N/A     65  43  44 S3        29.95S
BUFFALO        NOT AVBL
WYNDMERE         N/A     66  37  34 E5          N/A
 ***** THE ABOVE OBSERVATIONS ARE NON NWS ARE NOT QUALITY
       CONTROLLED AND MAY MIS-REPORT RAIN FOR SNOW...
$$

  *****  WEATHER ACROSS NORTHERN MINNESOTA  *****

CITY           SKY/WX    TMP DP  RH WIND       PRES   REMARKS
FLAG ISLAND    SUNNY     52  43  71 SE7       30.16R
WARROAD        SUNNY     63  39  42 SW9       30.18S
ROSEAU         SUNNY     64  37  36 SW9       30.18S
HALLOCK        SUNNY     64  43  45 S13       30.16F
THF RVR FALLS  SUNNY     61  36  39 S6        30.21R
HALSTAD        NOT AVBL
FOSSTON        SUNNY     64  36  34 CALM      30.21S
BAUDETTE       PTSUNNY   60  38  43 VRB3      30.18S
WASKISH        SUNNY     63  39  42 CALM      30.19F
CROOKSTON      SUNNY     63  36  36 S6        30.20S
$$
  *****  WEATHER ACROSS CENTRAL AND WEST MINNESOTA  *****

CITY           SKY/WX    TMP DP  RH WIND       PRES   REMARKS
BEMIDJI        SUNNY     61  35  37 CALM      30.20F
PARK RAPIDS    SUNNY     64  36  35 CALM      30.20S
WADENA         SUNNY     61  37  41 CALM      30.20S
DETROIT LAKES  SUNNY     63  32  31 CALM      30.21S
MOORHEAD       SUNNY     63  43  48 S5        30.20S
FERGUS FALLS   SUNNY     64  36  34 CALM      30.20S
ELBOW LAKE     FAIR      62  41  45 S3        30.20S
MORRIS MN      SUNNY     64  43  45 CALM      30.20R
STAPLES        SUNNY     63  30  29 CALM      30.21S
WHEATON        SUNNY     63  43  48 CALM      30.22S
$$
  *****  WEATHER ELSEWHERE ACROSS MINNESOTA  *****

CITY           SKY/WX    TMP DP  RH WIND       PRES   REMARKS
DULUTH         SUNNY     61  32  33 VRB6      30.21S
INTRNTL FALLS  SUNNY     62  30  29 W6        30.18S
ELY            SUNNY     57  25  28 CALM      30.20S
CLOQUET        SUNNY     61  27  27 S3        30.22S
BRAINERD       SUNNY     62  34  35 CALM      30.22S
HIBBING        SUNNY     62  29  28 VRB3      30.20F
ALEXANDRIA     SUNNY     63  35  35 S8        30.22R
SAINT CLOUD    SUNNY     63  34  33 VRB3      30.21S
MINNEAPOLIS    SUNNY     65  37  35 CALM      30.21R
$$

  *****  WEATHER ACROSS SOUTH DAKOTA  *****

CITY           SKY/WX    TMP DP  RH WIND       PRES   REMARKS
SIOUX FALLS    PTSUNNY   67  44  43 SE5       30.21R
BROOKINGS      SUNNY     63  37  39 SE7       30.22R
WATERTOWN      SUNNY     65  37  35 SE6       30.20S
HURON          SUNNY     65  39  38 VRB3      30.19R
SISSETON         N/A     65  38  36 CALM      30.19R
ABERDEEN       SUNNY     65  42  43 SE7       30.18S
MITCHELL       SUNNY     65  43  44 SE5       30.21R
PIERRE         SUNNY     61  43  51 SE6       30.15S
MOBRIDGE       MOSUNNY   65  41  41 E6        30.14S
RAPID CITY     CLOUDY    55  46  71 SE13      30.10F
$$

  *****  SOME WEATHER IN NEARBY STATES *****

CITY           SKY/WX    TMP DP  RH WIND       PRES   REMARKS
GLASGOW MT     SUNNY     61  34  36 SE17      30.05F
GREAT FALLS MT SUNNY     55  42  61 CALM      29.96F
CHEYENNE WY    LGT RAIN  42  41  96 SE15      30.04S FOG
SCOTTSBLUFF NE LGT RAIN  49  47  93 E15       30.08S FOG
OMAHA NE       CLOUDY    62  44  51 S3        30.24R
DES MOINES IA  CLOUDY    67  43  41 NW5       30.22R
DAVENPORT IA   SUNNY     66  43  43 SW3       30.20R
CHICAGO IL     SUNNY     59  36  42 NE12      30.20R
EAU CLAIRE WI  SUNNY     62  35  36 VRB6      30.20F
LA CROSSE WI   SUNNY     61  45  55 VRB5      30.20R
$$

  *****  SOME NATIONAL WEATHER *****

CITY           SKY/WX    TMP DP  RH WIND       PRES   REMARKS
LA GUARDIA NY  SUNNY     68  39  34 NW6       29.92S
RALEIGH NC     MOSUNNY   64  44  48 VRB6      30.21R
ATLANTA GA     MOSUNNY   66  49  54 E8        30.23R
NEW ORLEANS LA CLOUDY    70  61  73 NE10      30.18R
OKLAHOMA CITY  LGT RAIN  57  56  96 SE16      30.18R
ALBUQUERQUE NM PTSUNNY   56  45  66 CALM      30.11F
SALT LAKE CITY CLOUDY    56  43  61 S6        29.91S
LOS ANGELES CA PTSUNNY   58  50  75 W15       30.01R
BOISE ID       CLOUDY    59  48  67 S5        29.89S
SEATTLE WA     CLOUDY    54  50  86 SW7       29.97S
$$

*** WEATHER ACROSS MANITOBA...SASKATCHEWAN AND ONTARIO ***
                ***ONTARIO***

CITY           SKY/WX    TMP DP  RH WIND       PRES   REMARKS
GERALDTON      MOSUNNY   41  19  42 NW12G17   30.21S
THUNDER BAY    SUNNY     48  30  49 SE6       30.23F
SIOUX LOOKOUT  SUNNY     57  21  24 NW5       30.17F
TORONTO        PTSUNNY   57  36  44 NW7       30.06R
BIG TROUT LK   SUNNY     45  25  45 S6        30.11F
PICKLE LAKE    SUNNY     48  19  32 W7        30.15F
DRYDEN         SUNNY     59  28  31 W7        30.16F
KENORA         MOSUNNY   59  34  38 SW10      30.17S
$$
                *** MANITOBA***

CITY           SKY/WX    TMP DP  RH WIND       PRES   REMARKS
BRANDON        MOSUNNY   63  41  45 W10       30.14S
DAUPHIN        SUNNY     70  43  37 W18G25    30.08F
ISLAND LAKE    MOSUNNY   57  28  33 SE5       30.01F
PILOT MOUND      N/A     68  36  30 SW6         N/A
THE PAS        MOSUNNY   70  37  30 W12G22    29.97S
THOMPSON       MOSUNNY   59  36  41 NW7       29.90F
WINNIPEG       MOSUNNY   64  41  42 SW9G17    30.12S
LYNN LAKE      SUNNY     70  30  23 NE6       29.93S
CHURCHILL      PTSUNNY   54  36  50 NW9       29.84R
GILLAM         PTSUNNY   57  28  33 S10       29.93F
$$
                ***SASKATCHEWAN***

CITY           SKY/WX    TMP DP  RH WIND       PRES   REMARKS
ESTEVAN        SUNNY     66  39  37 SW3       30.14R
KINDERSLEY     SUNNY     64  32  29 S12G18    30.06S
LLOYDMINSTER   MOSUNNY   66  32  28 SW9       30.03S
PRINCE ALBERT  MOSUNNY   66  39  37 W7        30.05F
REGINA         SUNNY     63  41  45 VRB2      30.12F


USA.gov is the U.S. government's official web portal to all federal, state and local government web resources and services.